Regional Weather Roundup
Issued by NWS Upton, NY

Current Version | Previous Version | Text Only | Print | Product List | Glossary On
Versions: 1 2 3 4 5 6 7 8 9 10 11 12 13 14 15 16 17 18 19 20 21 22 23 24 25 26 27 28
000 ASUS41 KOKX 081408 RWROKX REGIONAL WEATHER ROUNDUP NATIONAL WEATHER SERVICE NEW YORK NY 900 AM EST THU DEC 08 2016 NOTE: "FAIR" INDICATES FEW OR NO CLOUDS BELOW 12,000 FEET WITH NO SIGNIFICANT WEATHER AND/OR OBSTRUCTIONS TO VISIBILITY. NYZ071-072-176-178-NJZ106-104-081500- NEW YORK CITY METRO AREA CITY SKY/WX TMP DP RH WIND PRES REMARKS Central Park NOT AVBL Wall St Helipt CLOUDY 39 30 70 SW5 30.00S Bronx Bot Gard NOT AVBL LaGuardia APRT CLOUDY 44 27 51 VRB5 29.98S Kennedy INTL CLOUDY 42 31 64 W12 29.99F Breezy Point N/A 39 N/A N/A W7G13 N/A WCI 34 Newark/Liberty CLOUDY 39 29 67 SW10 29.99R WCI 32 Teterboro CLOUDY 43 31 62 VRB7 29.97F $$ NYZ177-179-078>081-081500- LONG ISLAND NEW YORK CITY SKY/WX TMP DP RH WIND PRES REMARKS Jones Beach N/A 41 N/A N/A W9 N/A Matinecock PT NOT AVBL Farmingdale CLOUDY 40 35 83 W5 29.97S MacArthur/ISP CLOUDY 39 34 82 W5 29.96S Shirley CLOUDY 38 34 85 W7 29.97S WCI 33 Westhampton CLOUDY 37 33 85 CALM 29.97F Southampton NOT AVBL Bridgehampton NOT AVBL East Hampton CLOUDY 39 35 84 W5 29.95S Montauk N/A 44 37 76 SW5 29.95F $$ NYZ052-065-067-081500- HUDSON VALLEY CITY SKY/WX TMP DP RH WIND PRES REMARKS White Plains CLOUDY 37 30 75 CALM 29.94F Newburgh PTSUNNY 34 30 86 W6 29.95S WCI 29 Montgomery CLOUDY 34 31 88 SW5 29.93S WCI 30 Poughkeepsie CLOUDY 34 30 85 SW3 29.94S Albany PTSUNNY 31 30 96 CALM 29.91F FOG $$ NJZ001-105-106-008-010-013-015-019>022-104-081500- NEW JERSEY CITY SKY/WX TMP DP RH WIND PRES REMARKS Newark/Liberty CLOUDY 39 29 67 SW10 29.99R WCI 32 Teterboro CLOUDY 43 31 62 VRB7 29.97F Caldwell CLOUDY 37 29 72 SW5 29.98S WCI 33 Somerville CLOUDY 33 31 92 CALM 29.97F Linden CLOUDY 38 27 64 W5 29.99S WCI 35 Sussex CLOUDY 32 32 100 CALM 29.95S Andover N/A 34 28 79 S3 29.96S Trenton CLOUDY 34 30 85 SW6 29.99F WCI 29 Millville CLOUDY 35 35 100 W3 30.04R FOG Atlantic City CLOUDY 37 31 78 W3 30.02F Wrightstown CLOUDY 38 29 71 NW3 29.98S Toms River CLOUDY 34 33 96 W5 30.01F WCI 30 Belmar PTSUNNY 37 33 85 SW7 30.00F WCI 32 $$ PAZ047>061-062-071-081500- EASTERN PENNSYLVANIA CITY SKY/WX TMP DP RH WIND PRES REMARKS Philadelphia CLOUDY 39 31 72 W7 30.03R WCI 34 Allentown CLOUDY 36 25 64 SW8 29.99S WCI 30 Scranton CLOUDY 35 23 61 W7 29.94R WCI 29 $$ CTZ002-004>006-009-010-012-RIZ004-006-007-MAZ004-011-015-081500- SOUTHERN NEW ENGLAND IN CT CITY SKY/WX TMP DP RH WIND PRES REMARKS Bradley INTL FOG 30 29 96 SE5 29.93F VSB 1/2 WCI 25 Hartford FOG 31 31 100 SE3 29.95S VSB 1/2 Danbury CLOUDY 33 31 92 CALM 29.95F Wtrbury/Oxford PTSUNNY 32 28 86 CALM 29.93F Bridgeport CLOUDY 40 32 73 W6 29.96S Meriden FOG 32 30 92 S5 29.95F VSB 1/2 WCI 27 New Haven CLOUDY 37 34 89 VRB5 29.95S WCI 33 Chester PTSUNNY 37 32 81 VRB5 29.93F WCI 34 Groton CLOUDY 42 38 85 W6 29.94S Wilimantic FOG 33 33 100 CALM 29.95S VSB 1/4 IN RI CITY SKY/WX TMP DP RH WIND PRES REMARKS Providence CLOUDY 37 34 89 W3 29.94F FOG Block Island PTSUNNY 45 36 70 SW8 29.94F Westerly CLOUDY 36 33 89 CALM 29.94F FOG IN MA CITY SKY/WX TMP DP RH WIND PRES REMARKS Boston CLOUDY 39 35 86 SW8 29.93F WCI 33 Worcester PTSUNNY 31 29 92 W8 29.89S WCI 23 Westfield CLOUDY 30 30 100 S3 29.92F FOG Provincetown MOSUNNY 43 34 70 W7 29.93S Nantucket CLOUDY 44 34 67 W3 29.95R $$ ANZ330-335-338-340-345-350-353-355-081500- COASTAL MARINE OBSERVATIONS STATION/POSITION TIME SKY/WX TEMP WIND PRES VSBY WAVE AIR SEA DIR/SP/G HT/PER (UTC) (F) (DEG/KT/KT) (MB) (MI) (FT/S) NY HARB ENTRANCE 1350 43 52 280/ 16/ 19 1015.3 3/ 8 20 S FIRE ISLAND 1350 45 53 280/ 14/ 16 1014.8 4/ 8 GREAT SOUTH BAY 1315 40 43 N/A 23 SSW MONTAUK P 1350 47 54 250/ 14/ 16 1014.6 4/ 8 15 E BARNEGAT LI 1330 53 N/A 4/ 8 HUDSON CANYON 1250 49 56 1015.3 4/ 8 KINGS POINT 1336 42 48 1014.7 EXECUTION ROCKS 1345 42 250/ 8/ 10 N/A CENTRAL LI SOUND 1330 44 50 270/ 14/ 16 N/A 1/ 3 EASTERN LI SOUND NOT AVBL ROBBINS REEF 1336 38 260/ 11/ 13 1015.6 $$ >>>>>>>>>>>>>>>>>>>>>>>>>>>> KEY <<<<<<<<<<<<<<<<<<<<<<<<<<< > < > SKY/WX - Sky Condition/Present Weather < > TMP - Temperature in Fahrenheit < > DP - Dew Point in Fahrenheit < > RH - Relative Humidity in Percent < > WIND - Direction (from) and Speed in MPH < > PRES - Mean Sea Level Pressure (inches of Hg) < > WCI - Wind Chill Index < > VSB - VISIBILITY IN MILES < > HX - HEAT INDEX < > TC - TEMPERATURE IN CELSIUS < > VRB - VARIABLE WIND DIRECTION < > < >>>>>>>>>>>>>>>>>>>>>>>>>>>> KEY <<<<<<<<<<<<<<<<<<<<<<<<<<<

USA.gov is the U.S. government's official web portal to all federal, state and local government web resources and services.